• In Russia
  • List of Countries
  • For 7 days
  • Water Temperature
  • Satellite Maps
  • Weather Map
  • Weather Widgets
  • user-avatar
    Login

    Hourly Weather Godzikowice

    Today, 22 February, Friday

    Time Temperature Precipitation Wind Pressure Humidity
    00:00 +6°C° 1 mm 5 mps 753 mmHg 91%
    01:00 +5°C° 0 mm 4 mps 753 mmHg 92%
    02:00 +5°C° 0.7 mm 5 mps 753 mmHg 93%
    03:00 +5°C° 0.7 mm 5 mps 753 mmHg 93%
    04:00 +5°C° 0.7 mm 6 mps 753 mmHg 93%
    05:00 +3°C° 0.1 mm 6 mps 755 mmHg 89%
    06:00 +2°C° 0.1 mm 7 mps 756 mmHg 85%
    07:00 0°C° 0 mm 5 mps 757 mmHg 80%
    08:00 -1°C° 0 mm 6 mps 758 mmHg 75%
    09:00 -2°C° 0 mm 6 mps 760 mmHg 70%
    10:00 -2°C° 0 mm 6 mps 761 mmHg 65%
    11:00 -2°C° 0 mm 6 mps 762 mmHg 59%
    12:00 -2°C° 0 mm 6 mps 762 mmHg 52%
    13:00 -1°C° 0 mm 6 mps 763 mmHg 46%
    14:00 -2°C° 0 mm 6 mps 764 mmHg 45%
    15:00 -2°C° 0 mm 6 mps 764 mmHg 45%
    16:00 -2°C° 0 mm 5 mps 765 mmHg 44%
    17:00 -2°C° 0 mm 5 mps 766 mmHg 47%
    18:00 -3°C° 0 mm 4 mps 766 mmHg 51%
    19:00 -4°C° 0 mm 3 mps 767 mmHg 54%
    20:00 -4°C° 0 mm 3 mps 768 mmHg 52%
    21:00 -4°C° 0 mm 3 mps 768 mmHg 51%
    22:00 -4°C° 0 mm 3 mps 769 mmHg 49%
    23:00 -4°C° 0 mm 3 mps 769 mmHg 47%

    Tomorrow, 23 February, Saturday

    Time Temperature Precipitation Wind Pressure Humidity
    00:00 -3°C° 0 mm 2 mps 770 mmHg 45%
    01:00 -3°C° 0 mm 2 mps 770 mmHg 42%
    02:00 -3°C° 0 mm 2 mps 770 mmHg 42%
    03:00 -4°C° 0 mm 2 mps 770 mmHg 41%
    04:00 -4°C° 0 mm 2 mps 770 mmHg 41%
    05:00 -2°C° 0 mm 1 mps 770 mmHg 41%
    06:00 -2°C° 0 mm 1 mps 770 mmHg 41%
    07:00 -2°C° 0 mm 1 mps 770 mmHg 41%
    08:00 -1°C° 0 mm 1 mps 770 mmHg 38%
    09:00 -1°C° 0 mm 1 mps 771 mmHg 34%
    10:00 -2°C° 0 mm 2 mps 771 mmHg 30%
    11:00 -1°C° 0 mm 2 mps 770 mmHg 28%
    12:00 +2°C° 0 mm 1 mps 770 mmHg 26%
    13:00 +2°C° 0 mm 1 mps 770 mmHg 24%
    14:00 +2°C° 0 mm 1 mps 769 mmHg 25%
    15:00 +2°C° 0 mm 1 mps 769 mmHg 26%
    16:00 +2°C° 0 mm 1 mps 769 mmHg 27%
    17:00 +2°C° 0 mm 1 mps 769 mmHg 30%
    18:00 +1°C° 0 mm 1 mps 769 mmHg 33%
    19:00 0°C° 0 mm 1 mps 769 mmHg 37%
    20:00 0°C° 0 mm 1 mps 769 mmHg 38%
    21:00 -3°C° 0 mm 2 mps 768 mmHg 38%
    22:00 -3°C° 0 mm 2 mps 768 mmHg 39%
    23:00 -3°C° 0 mm 2 mps 768 mmHg 39%

    Day after tomorrow, 24 February, Sunday

    Time Temperature Precipitation Wind Pressure Humidity
    00:00 -1°C° 0 mm 1 mps 768 mmHg 39%
    01:00 -1°C° 0 mm 1 mps 768 mmHg 39%
    02:00 0°C° 0 mm 1 mps 767 mmHg 37%
    03:00 0°C° 0 mm 1 mps 767 mmHg 36%
    04:00 -1°C° 0 mm 0 mps 767 mmHg 35%
    05:00 0°C° 0 mm 1 mps 767 mmHg 34%
    06:00 0°C° 0 mm 1 mps 767 mmHg 34%
    07:00 0°C° 0 mm 1 mps 767 mmHg 33%
    08:00 +1°C° 0 mm 1 mps 767 mmHg 31%
    09:00 +3°C° 0 mm 1 mps 767 mmHg 28%
    10:00 +4°C° 0 mm 1 mps 767 mmHg 25%
    11:00 +4°C° 0 mm 2 mps 767 mmHg 25%
    12:00 +5°C° 0 mm 2 mps 767 mmHg 26%
    13:00 +7°C° 0 mm 3 mps 766 mmHg 26%
    14:00 +6°C° 0 mm 2 mps 766 mmHg 32%
    15:00 +6°C° 0 mm 2 mps 766 mmHg 39%
    16:00 +6°C° 0 mm 2 mps 766 mmHg 45%
    17:00 +4°C° 0 mm 2 mps 766 mmHg 47%
    18:00 +3°C° 0 mm 2 mps 766 mmHg 49%
    19:00 +2°C° 0 mm 2 mps 766 mmHg 51%
    20:00 +2°C° 0 mm 2 mps 766 mmHg 53%
    21:00 +1°C° 0 mm 2 mps 767 mmHg 55%
    22:00 +1°C° 0 mm 2 mps 767 mmHg 57%
    23:00 +1°C° 0 mm 2 mps 767 mmHg 58%

    25 February, Monday

    Time Temperature Precipitation Wind Pressure Humidity
    00:00 +1°C° 0 mm 2 mps 767 mmHg 59%
    01:00 0°C° 0 mm 3 mps 767 mmHg 60%
    02:00 0°C° 0 mm 3 mps 766 mmHg 61%
    03:00 -1°C° 0 mm 3 mps 766 mmHg 62%
    04:00 -1°C° 0 mm 3 mps 766 mmHg 63%
    05:00 -1°C° 0 mm 3 mps 766 mmHg 64%
    06:00 -1°C° 0 mm 3 mps 766 mmHg 66%
    07:00 -1°C° 0 mm 3 mps 767 mmHg 68%
    08:00 0°C° 0 mm 3 mps 767 mmHg 65%
    09:00 +2°C° 0 mm 3 mps 767 mmHg 63%
    10:00 +3°C° 0 mm 3 mps 767 mmHg 60%
    11:00 +5°C° 0 mm 3 mps 767 mmHg 60%
    12:00 +7°C° 0 mm 3 mps 766 mmHg 60%
    13:00 +8°C° 0 mm 3 mps 766 mmHg 60%
    14:00 +8°C° 0 mm 3 mps 766 mmHg 62%
    15:00 +8°C° 0 mm 2 mps 766 mmHg 64%
    16:00 +8°C° 0 mm 2 mps 766 mmHg 66%
    17:00 +7°C° 0 mm 2 mps 766 mmHg 70%
    18:00 +6°C° 0 mm 2 mps 766 mmHg 74%
    19:00 +5°C° 0 mm 2 mps 766 mmHg 78%
    20:00 +4°C° 0 mm 2 mps 765 mmHg 78%
    21:00 +4°C° 0 mm 2 mps 765 mmHg 78%
    22:00 +2°C° 0 mm 3 mps 765 mmHg 78%
    23:00 +2°C° 0 mm 3 mps 765 mmHg 77%

    26 February, Tuesday

    Time Temperature Precipitation Wind Pressure Humidity
    00:00 +2°C° 0 mm 3 mps 764 mmHg 76%
    01:00 +2°C° 0 mm 3 mps 764 mmHg 76%
    02:00 +2°C° 0 mm 3 mps 763 mmHg 75%
    03:00 +2°C° 0 mm 3 mps 763 mmHg 75%
    04:00 +1°C° 0 mm 4 mps 762 mmHg 75%
    05:00 +1°C° 0 mm 4 mps 762 mmHg 76%
    06:00 +1°C° 0 mm 4 mps 762 mmHg 77%
    07:00 +1°C° 0 mm 4 mps 762 mmHg 78%
    08:00 +2°C° 0 mm 5 mps 761 mmHg 73%
    09:00 +4°C° 0 mm 6 mps 761 mmHg 68%
    10:00 +6°C° 0 mm 7 mps 761 mmHg 63%
    11:00 +8°C° 0 mm 7 mps 760 mmHg 59%
    12:00 +9°C° 0 mm 7 mps 760 mmHg 55%
    13:00 +10°C° 0 mm 7 mps 760 mmHg 51%
    14:00 +9°C° 0 mm 6 mps 760 mmHg 56%
    15:00 +8°C° 0 mm 5 mps 760 mmHg 62%
    16:00 +7°C° 0 mm 4 mps 759 mmHg 67%
    17:00 +7°C° 0 mm 4 mps 760 mmHg 71%
    18:00 +7°C° 0 mm 3 mps 760 mmHg 76%
    19:00 +5°C° 0 mm 3 mps 760 mmHg 80%
    20:00 +4°C° 0 mm 3 mps 760 mmHg 83%
    21:00 +4°C° 0 mm 3 mps 760 mmHg 87%
    22:00 +3°C° 0 mm 3 mps 760 mmHg 90%
    23:00 +3°C° 0 mm 3 mps 760 mmHg 91%

    27 February, Wednesday

    Time Temperature Precipitation Wind Pressure Humidity
    00:00 +2°C° 0 mm 3 mps 760 mmHg 92%
    01:00 +2°C° 0 mm 3 mps 760 mmHg 93%
    02:00 +2°C° 0 mm 3 mps 760 mmHg 94%
    03:00 +1°C° 0 mm 3 mps 760 mmHg 94%
    04:00 +1°C° 0 mm 3 mps 760 mmHg 94%
    05:00 +2°C° 0 mm 2 mps 760 mmHg 94%
    06:00 +1°C° 0 mm 2 mps 760 mmHg 94%
    07:00 +1°C° 0 mm 2 mps 760 mmHg 93%
    08:00 +3°C° 0 mm 2 mps 760 mmHg 86%
    09:00 +4°C° 0 mm 2 mps 760 mmHg 78%
    10:00 +6°C° 0 mm 2 mps 759 mmHg 71%
    11:00 +7°C° 0 mm 2 mps 759 mmHg 63%
    12:00 +8°C° 0 mm 2 mps 758 mmHg 56%
    13:00 +10°C° 0 mm 2 mps 758 mmHg 49%
    14:00 +11°C° 0 mm 1 mps 757 mmHg 49%
    15:00 +11°C° 0 mm 1 mps 757 mmHg 49%
    16:00 +12°C° 0 mm 1 mps 756 mmHg 49%
    17:00 +10°C° 0 mm 1 mps 756 mmHg 52%
    18:00 +9°C° 0 mm 1 mps 756 mmHg 55%
    19:00 +7°C° 0 mm 2 mps 755 mmHg 57%
    20:00 +7°C° 0 mm 2 mps 755 mmHg 63%
    21:00 +6°C° 0 mm 2 mps 755 mmHg 68%
    22:00 +6°C° 0 mm 2 mps 754 mmHg 73%
    23:00 +6°C° 0 mm 2 mps 754 mmHg 77%
    Show more